Regional Weather Roundup
Issued by NWS Memphis, TN

Home | Current Version | Previous Version | Text Only | Print | Product List | Glossary On
Versions: 1 2 3 4 5 6 7 8 9 10 11 12 13 14 15 16 17 18 19 20 21 22 23 24 25 26 27 28 29 30 31 32 33 34 35 36 37 38 39 40 41 42 43 44 45 46 47 48 49 50
000
ASUS44 KMEG 272110
RWRMEG
MEMPHIS CWA HOURLY WEATHER ROUNDUP
NATIONAL WEATHER SERVICE MEMPHIS TN
300 PM CST TUE JAN 27 2015

...WEST TENNESSEE...

CITY           SKY/WX    TMP DP  RH WIND       PRES   REMARKS
MEMPHIS INTL   SUNNY     56  35  45 N7        30.12R
NWS MEMPHIS      N/A     55 N/A N/A MISG        N/A
JACKSON        SUNNY     51  32  48 N14       30.12R
LEXINGTON      SUNNY     46  30  53 NW9       30.09S
SAVANNAH         N/A     52  34  50 N9        30.10R
DYERSBURG      SUNNY     48  27  43 N12       30.15R
UNION CITY     MOSUNNY   43  34  70 NW12      30.13R
PARIS          PTSUNNY   43  28  56 NW8       30.12S


...EASTERN ARKANSAS...

CITY           SKY/WX    TMP DP  RH WIND       PRES   REMARKS
JONESBORO      SUNNY     52  36  54 VRB7      30.13R
WEST MEMPHIS   SUNNY     54  38  54 NE10      30.13R
BATESVILLE     SUNNY     61  34  36 SW3       30.12S
NEWPORT        SUNNY     55  38  52 NE6       30.15R
WALNUT RIDGE   SUNNY     54  36  50 E3        30.13S
BLYTHEVILLE    MOSUNNY   54  38  54 N10       30.15R
SEARCY         SUNNY     62  32  32 NE3       30.13S
STUTTGART      SUNNY     61  36  39 N6        30.14R
PINE BLUFF     SUNNY     61  34  36 NE5       30.13S
MONTICELLO     LGT RAIN  67  33  28 N5        30.11S


...NORTH MISSISSIPPI...

CITY           SKY/WX    TMP DP  RH WIND       PRES   REMARKS
TUPELO         SUNNY     57  33  40 NE10      30.08R
OXFORD         SUNNY     55  32  41 N10       30.11S
TUNICA         SUNNY     55  39  54 N10       30.13S
CLARKSDALE     SUNNY     57  39  51 N9        30.13R
CORINTH        SUNNY     55  32  41 N6G14     30.08S
GRENADA        SUNNY     61  32  33 N8        30.10R
GREENWOOD      SUNNY     61  34  36 NW8       30.10R
COLUMBUS       SUNNY     58  33  38 N13       30.08R
STARKVILLE     FAIR      59  34  38 NW7       30.07S
GOLDEN TRIANGL SUNNY     59  37  44 N12       30.07R


...SOUTHEAST MISSOURI...

CITY           SKY/WX    TMP DP  RH WIND       PRES   REMARKS
WEST PLAINS    SUNNY     58  28  32 N5        30.11S
POPLAR BLUFF   SUNNY     52  32  46 CALM      30.12S
CAPE GIRARDEAU MOSUNNY   47  33  58 N14       30.15R


...NORTHWEST ALABAMA...

CITY           SKY/WX    TMP DP  RH WIND       PRES   REMARKS
MUSCLE SHOALS  SUNNY     54  30  40 N8        30.08R


...MIDDLE TENNESSEE...

CITY           SKY/WX    TMP DP  RH WIND       PRES   REMARKS
NASHVILLE      CLOUDY    39  30  70 NW9       30.11R WCI  33
CLARKSVILLE    CLOUDY    38  30  73 N12       30.13R WCI  30
COLUMBIA       MOSUNNY   46  34  61 N10       30.05S


...WESTERN KENTUCKY...

CITY           SKY/WX    TMP DP  RH WIND       PRES   REMARKS
PADUCAH        CLOUDY    45  30  55 N8        30.13R
FORT CAMPBELL  CLOUDY    38  30  72 NW10      30.13R WCI  31


...CENTRAL ARKANSAS...

CITY           SKY/WX    TMP DP  RH WIND       PRES   REMARKS
LITTLE ROCK    SUNNY     67  29  24 CALM      30.12S


SKY/WX REPORTED AS FAIR MEANS FEW OR NO CLOUDS BELOW
12 THOUSAND FEET.



USA.gov is the U.S. government's official web portal to all federal, state and local government web resources and services.